sat.trackr.live / text

‹ back to catalog

STARLINK-35869

NORAD 66353 · 2025-254F

PAYLOAD ACTIVE UNKNOWN

§ Identity

Operator
Country
US
Launch date
2025-11-06
Launch site
AFWTR
Launch vehicle
Mass (kg)
RCS (m²)

Purposes: comms

External: N2YO · Heavens-Above · Gunter

§ Orbital elements

Epoch: 2026-05-24T17:38:20.180256Z

Period
94.10 min
Inclination
53.1595°
Eccentricity
0.0001098
Mean motion
15.30211798 rev/d
Perigee alt
474.4 km
Apogee alt
475.9 km
Semi-major
6,853.3 km
B*
5.4887e-4
RAAN
238.8670°
Arg perigee
65.9998°
Mean anomaly
294.1118°
Rev number
3,062

§ Raw data

STARLINK-358691 66353U 25254F   26144.73495579  .00015938  00000+0  54887-3 0  99972 66353  53.1595 238.8670 0001098  65.9998 294.1118 15.30211798 30625

JSON: /api/v1/satellites/66353 · /tle

For live sub-satellite position, see the globe view (requires WebGL).

§ Visibility from observer

Set your observer location to see the next 7 days of passes ≥ 10°. The values pass through the URL so the page stays shareable.

No JS? Fill the form by hand. The geolocation button needs JavaScript.